Location: Highland Station (historical)
(44.9576°N, 123.0284°W)
Time: 20:19:46
(UTC+00:00)

Envisat - Visible Passes

Search period start: 21 September 2020 00:00
Search period end: 01 October 2020 00:00
Orbit: 764 x 766 km, 98.1° (Epoch: 21 September)

Date Brightness Start Highest point End Pass type
(mag) Time Alt. Az. Time Alt. Az. Time Alt. Az.
23 Sep 6.1 02:40:13 10° SW 02:43:42 18° W 02:47:13 10° NW visible
23 Sep 6.1 13:07:19 10° NE 13:10:41 17° E 13:14:01 10° SE visible
25 Sep 6.7 03:08:43 10° W 03:09:29 10° W 03:10:16 10° WNW visible
25 Sep 5.4 13:31:55 10° NE 13:36:22 29° E 13:40:46 10° SSE visible
26 Sep 5.9 02:28:15 10° SW 02:32:14 23° W 02:36:15 10° NW visible
26 Sep 6.3 12:56:36 10° ENE 12:59:10 14° E 13:01:44 10° ESE visible
28 Sep 6.4 02:55:31 10° WSW 02:57:58 13° W 03:00:25 10° WNW visible
28 Sep 5.8 13:20:50 10° NE 13:24:55 24° E 13:28:57 10° SE visible
29 Sep 6.6 12:46:32 10° ENE 12:47:39 11° E 12:48:47 10° E visible
